CST,Max TemperatureF,Mean TemperatureF,Min TemperatureF,Max Dew PointF,MeanDew PointF,Min DewpointF,Max Humidity, Mean Humidity, Min Humidity, Max Sea Level PressureIn, Mean Sea Level PressureIn, Min Sea Level PressureIn, Max VisibilityMiles, Mean VisibilityMiles, Min VisibilityMiles, Max Wind SpeedMPH, Mean Wind SpeedMPH, Max Gust SpeedMPH,PrecipitationIn, CloudCover, Events, WindDirDegrees
2013-2-1,60,48,37,34,31,25,86,57,26,30.43,30.35,30.30,10,10,10,9,3,,0.00,0,,27
2013-2-2,68,52,36,52,40,26,96,61,42,30.34,30.25,30.16,10,10,3,12,3,22,0.05,2,Rain,209
2013-2-3,66,52,39,49,40,23,100,80,19,30.29,30.22,30.12,10,6,0,13,1,20,0.00,1,Fog,335
2013-2-4,57,49,41,50,41,32,89,70,53,30.10,30.03,29.95,10,10,10,6,2,,0.00,4,,146
2013-2-5,71,62,53,57,55,51,100,88,53,30.04,29.99,29.94,10,6,0,6,2,,0.00,5,Fog,117
2013-2-6,68,60,53,59,56,54,100,90,64,30.12,30.06,29.98,10,5,1,12,4,,0.38,7,Rain,113
2013-2-7,66,58,51,58,56,49,100,89,66,29.98,29.91,29.84,10,9,2,14,7,22,0.90,5,Rain,311
2013-2-8,66,58,51,58,53,45,100,84,68,30.19,30.08,29.96,10,9,2,16,5,23,0.00,7,,342
2013-2-9,64,52,41,55,48,38,94,82,63,30.25,30.15,30.05,10,9,6,10,5,17,0.00,4,,110
2013-2-10,69,63,57,68,63,56,100,95,88,30.05,29.94,29.85,10,6,1,18,9,32,0.87,8,Rain-Thunderstorm,175
2013-2-11,61,56,51,61,54,50,100,97,88,30.17,30.08,29.97,10,6,1,22,5,37,2.57,8,Rain-Thunderstorm,29
2013-2-12,59,55,51,58,54,51,100,98,90,30.10,29.89,29.74,10,4,1,13,6,26,0.22,8,Rain-Thunderstorm,58
2013-2-13,53,45,36,52,42,34,94,80,61,30.08,29.97,29.86,10,10,8,15,9,22,0.01,6,Rain,311
2013-2-14,60,45,30,40,35,29,100,75,36,30.16,30.10,30.06,10,9,5,6,1,,0.00,0,,267
2013-2-15,66,50,34,42,36,32,97,64,31,30.19,30.14,30.09,10,10,10,13,3,20,0.00,1,,335
2013-2-16,50,42,34,37,24,14,73,51,25,30.30,30.24,30.18,10,10,10,22,10,31,0.00,1,,328
2013-2-17,60,44,28,37,28,22,85,57,31,30.35,30.27,30.20,10,10,10,13,4,23,0.00,0,,171
2013-2-18,63,52,41,59,50,37,100,86,60,30.22,30.05,29.95,10,9,2,23,11,37,0.55,6,Rain,156
2013-2-19,62,54,44,59,43,25,96,70,25,30.25,30.12,29.95,10,10,9,17,8,21,0.06,4,Rain,342
2013-2-20,57,48,39,30,26,21,63,45,27,30.27,30.16,30.05,10,10,10,12,4,16,0.00,1,,73
2013-2-21,69,58,46,67,53,25,100,78,42,30.05,29.87,29.74,10,7,2,20,10,34,0.96,8,Rain-Thunderstorm,158
2013-2-22,64,58,53,59,51,46,96,78,52,29.99,29.94,29.88,10,10,4,8,4,,0.39,8,Rain-Thunderstorm,29
2013-2-23,62,55,48,52,48,42,94,80,58,29.98,29.93,29.88,10,10,10,14,7,,0.01,4,,15
2013-2-24,70,56,42,56,44,39,96,67,35,30.00,29.91,29.73,10,10,5,13,5,21,0.18,2,Rain-Thunderstorm,77
2013-2-25,66,62,54,63,59,43,100,93,66,29.77,29.59,29.44,10,9,2,15,7,28,0.44,7,Rain-Thunderstorm,154
2013-2-26,55,47,39,40,36,33,96,66,45,29.93,29.74,29.55,10,10,10,15,8,26,0.00,3,,265
2013-2-27,66,50,35,43,37,33,96,61,29,30.04,29.97,29.93,10,10,10,13,4,25,0.00,1,,297
2013-2-28,51,44,37,37,31,24,86,63,35,30.14,30.09,30.05,10,10,10,14,6,16,0.00,0,,322